Карточка аэропорта UATT

Внимание!
Информация на этой странице в стадии наполнения.
Если вы не увидели какой-то информации, или заметили неточность - пожалуйста сообщите нам!
Спасибо!
Команда RU-STAFF
Название аэропортаАктобе
Название аэропорта (англ.)Aktobe
Превышение738 ft. (224.9 m.)
Координаты50°14.748', 57°12.402'
Высота перехода10000ft
Эшелон переходаFL120, QNH<733:FL130
Коды ответчика3440-3447, 3540-3547
Зона ОрВДАктобе РПИ (UATT)
Данные METARUATT 251130Z 22004MPS 9999 -SHRA SCT037CB 18/16 Q1002 NOSIG RMK QFE732/0976
Проноз погоды (TAF)UATT 251100Z 2512/2612 23005MPS 9999 BKN011 BKN020CB TX23/2610Z TN13/2600Z TEMPO 2512/2517 32010MPS 3100 -TSRA FM251800 35003MPS 3100 BR SCT011 TEMPO 2520/2602 0500 FG VV003 BECMG 2604/2605 9999 NSW BKN020CB
NOTAMshow/hide NOTAM
AWOS   TABLE

Информация о ВПП

ВПП Длина ВПП (м.) Покрытие Курс ВПП Частота ILS
313202Бетон315111.7
133202Бетон135111.7

Диспетчерские позиции




Спутниковое изображение